Burlington, CO

9:47 PM MST on December 12, 2017 (GMT -0700)
Kit Carson County

Weather History for KITR - June, 2014

Change the Weather History Date:

Saturday, June 7, 2014

  Actual Average Record
Temperature  
Mean Temperature 56 °F 66 °F  
Max Temperature 62 °F 80 °F 103 °F (2004)
Min Temperature 50 °F 52 °F 40 °F (1954)
Degree Days  
Heating Degree Days 8    
Growing Degree Days 6 (Base 50)    
Moisture  
Dew Point 51 °F    
Average Humidity 88    
Maximum Humidity 97    
Minimum Humidity 72    
Precipitation  
Precipitation 0.00 in 0.10 in 1.43 in (2017)
Month to date precipitation 0.65 0.69  
Year to date precipitation 3.57 6.42  
Sea Level Pressure  
Sea Level Pressure 30.06 in    
Wind  
Wind Speed 10 mph (NNE)    
Max Wind Speed 18 mph    
Max Gust Speed 24 mph    
Visibility 8 miles    
Events      
T = Trace of Precipitation, MM = Missing Value Source: NWS Daily Summary

Daily Weather History Graph

Daily Weather History Graph

Search for Another Location

Airport or City:

Trip Planner

Search our weather history database for the weather conditions in past years. The results will help you decide how hot, cold, wet, or windy it might be!

Date:

Astronomy

Jun. 07, 2014 Rise Set
Actual Time 5:22 AM MDT 8:13 PM MDT
Civil Twilight 4:50 AM MDT 8:45 PM MDT
Nautical Twilight 4:10 AM MDT 9:25 PM MDT
Astronomical Twilight 3:24 AM MDT 10:12 PM MDT
Moon 2:35 PM MDT (6/7) 1:43 AM MDT (6/7)
Length of Visible Light 15h 54m
Length of Day
14h 50m
Waxing Gibbous, 68% of the Moon is Illuminated
Jun 7
Waxing Gibbous
Jun 12
Full
Jun 19
Last Quarter
Jun 27
New
Jul 5
First Quarter

Hourly Weather History & Observations

Time (MDT) Temp. Dew Point Humidity Pressure Visibility Wind Dir Wind Speed Gust Speed Precip Events Conditions
12:53 AM 51.1 °F 48.9 °F 92% 29.90 in 10.0 mi NW 5.8 mph - N/A   Clear
1:53 AM 51.1 °F 48.0 °F 89% 29.94 in 10.0 mi North 5.8 mph - N/A   Clear
3:53 AM 51.1 °F 48.9 °F 92% 29.97 in 10.0 mi NNW 9.2 mph - N/A   Clear
4:07 AM 52.0 °F 48.9 °F 89% 30.10 in 10.0 mi North 11.5 mph - N/A   Scattered Clouds
4:15 AM 52.0 °F 50.0 °F 93% 30.11 in 10.0 mi North 10.4 mph 18.4 mph N/A   Mostly Cloudy
4:32 AM 52.0 °F 50.0 °F 93% 30.10 in 2.5 mi North 17.3 mph - N/A   Overcast
4:36 AM 52.0 °F 50.0 °F 93% 30.10 in 0.8 mi North 16.1 mph - N/A   Overcast
4:53 AM 52.0 °F 51.1 °F 97% 29.97 in 1.0 mi North 17.3 mph 24.2 mph N/A   Mist
4:58 AM 52.0 °F 51.1 °F 97% 30.09 in 3.0 mi North 17.3 mph - N/A   Overcast
5:26 AM 53.1 °F 51.1 °F 93% 30.08 in 6.0 mi NNE 17.3 mph - N/A   Overcast
6:13 AM 52.0 °F 50.0 °F 93% 30.08 in 4.0 mi NNE 18.4 mph - N/A   Overcast
6:21 AM 51.1 °F 50.0 °F 96% 30.09 in 1.5 mi NNE 12.7 mph - N/A   Overcast
6:53 AM 51.1 °F 48.9 °F 92% 30.05 in 4.0 mi NNE 11.5 mph - N/A   Overcast
7:02 AM 51.1 °F 50.0 °F 96% 30.12 in 1.8 mi North 11.5 mph - N/A   Overcast
7:12 AM 51.1 °F 50.0 °F 96% 30.13 in 0.8 mi North 8.1 mph - N/A   Overcast
7:53 AM 52.0 °F 50.0 °F 93% 30.07 in 2.5 mi NNW 6.9 mph - N/A   Overcast
8:09 AM 52.0 °F 51.1 °F 97% 30.14 in 6.0 mi NNW 8.1 mph - N/A   Overcast
8:29 AM 53.1 °F 50.0 °F 89% 30.13 in 10.0 mi North 10.4 mph - N/A   Overcast
8:53 AM 53.1 °F 50.0 °F 89% 30.07 in 10.0 mi North 9.2 mph - N/A   Overcast
9:12 AM 54.0 °F 51.1 °F 90% 30.14 in 10.0 mi NNW 6.9 mph - N/A   Overcast
9:53 AM 55.9 °F 51.1 °F 84% 30.06 in 10.0 mi North 8.1 mph - N/A   Overcast
10:53 AM 57.0 °F 52.0 °F 83% 30.06 in 10.0 mi NE 8.1 mph - N/A   Overcast
11:14 AM 57.0 °F 51.1 °F 81% 30.14 in 10.0 mi NNE 9.2 mph - N/A   Overcast
11:53 AM 55.9 °F 51.1 °F 84% 30.08 in 10.0 mi NNE 9.2 mph - N/A   Overcast
12:53 PM 55.9 °F 52.0 °F 87% 30.06 in 10.0 mi NE 13.8 mph - N/A   Overcast
1:18 PM 55.9 °F 52.0 °F 87% 30.13 in 10.0 mi NE 13.8 mph - N/A   Overcast
1:53 PM 57.0 °F 52.0 °F 83% 30.04 in 10.0 mi NE 11.5 mph - N/A   Overcast
2:00 PM 57.9 °F 52.0 °F 81% 30.11 in 10.0 mi NE 10.4 mph - N/A   Overcast
2:53 PM 59.0 °F 51.1 °F 75% 30.03 in 10.0 mi NE 9.2 mph - N/A   Overcast
3:53 PM 60.1 °F 51.1 °F 72% 30.04 in 10.0 mi NNE 4.6 mph - N/A   Overcast
4:53 PM 61.0 °F 53.1 °F 75% 30.00 in 10.0 mi ENE 10.4 mph - N/A   Scattered Clouds
5:53 PM 60.1 °F 53.1 °F 78% 30.01 in 10.0 mi East 10.4 mph - N/A   Overcast
6:53 PM 62.1 °F 54.0 °F 75% 30.00 in 10.0 mi East 11.5 mph - N/A   Mostly Cloudy
7:53 PM 60.1 °F 55.0 °F 83% 30.03 in 10.0 mi East 6.9 mph - N/A   Overcast
8:53 PM 57.9 °F 55.0 °F 90% 30.04 in 10.0 mi East 8.1 mph - N/A   Mostly Cloudy
9:53 PM 57.9 °F 55.0 °F 90% 30.05 in 10.0 mi East 6.9 mph - N/A   Overcast
10:53 PM 57.0 °F 54.0 °F 89% 30.05 in 10.0 mi ESE 9.2 mph - N/A   Scattered Clouds
11:00 PM 57.0 °F 54.0 °F 89% 30.14 in 10.0 mi ESE 9.2 mph - N/A   Mostly Cloudy
11:53 PM 57.0 °F 54.0 °F 89% 30.04 in 10.0 mi East 9.2 mph - N/A   Overcast